EHI
0 0 0 0 0 0 0 0 0 0 0 0 0 0 0 0 0 0 0 0 0 0 0 0 0 0 0 0 0 0 0 0 0 0 0 0 0 0 0 0 1 2 2 2
0 0 0 0 0 0 0 0 0 0 0 0 0 0 0 0 0 0 0 0 0 0 0 0 0 0 0 0 0 0 0 0 0 0 0 0 0 0 0 0 0 1 1 1
0 0 0 0 0 0 0 0 0 0 0 0 0 0 0 0 0 0 0 0 0 0 0 0 0 0 0 0 0 0 0 0 0 0 0 0 0 0 0 0 0 0 0 0
0 0 0 0 0 0 0 0 0 0 0 0 0 0 0 0 0 0 0 0 0 0 0 0 0 0 0 0 0 0 0 0 0 0 0 0 0 0 0 0 0 0 0 0
0 0 0 0 0 0 0 0 0 0 0 0 0 0 0 0 0 0 0 0 0 0 0 0 0 0 0 0 0 0 0 0 0 0 0 0 0 0 0 0 0 0 0 0
0 0 0 0 0 0 0 0 0 0 0 0 0 0 0 0 0 0 0 0 0 0 0 0 0 0 0 0 0 0 0 0 0 0 0 0 0 0 0 0 0 0 0 0
0 0 0 0 0 0 0 0 0 0 0 0 0 0 0 0 0 0 0 0 0 0 0 0 0 0 0 0 0 0 0 0 0 0 0 0 0 0 0 0 0 0 0 0
0 0 0 0 0 0 0 0 0 0 0 0 0 0 0 0 0 0 0 0 0 0 0 0 0 0 0 0 0 0 0 0 0 0 0 0 0 0 0 0 0 0 0 0
0 0 0 0 0 0 0 0 0 0 0 0 0 0 0 0 0 0 0 0 0 0 0 0 0 0 0 0 0 0 0 0 0 0 0 0 0 0 0 0 0 0 0 0
0 0 0 0 0 0 0 0 0 0 0 0 0 0 0 0 0 0 0 0 0 0 0 0 0 0 0 0 0 0 0 0 0 0 0 0 0 0 0 0 0 0 0 0
0 0 0 0 0 0 0 0 0 0 0 0 0 0 0 0 0 0 0 0 0 0 0 0 0 0 0 0 0 0 0 0 0 0 0 0 0 0 0 0 0 0 0 0
0 0 0 0 0 0 0 0 0 0 0 0 0 0 0 0 0 0 0 0 0 0 0 0 0 0 0 0 0 0 0 0 0 0 0 0 0 0 0 0 0 0 0 0
0 0 0 0 0 0 0 0 0 0 0 0 0 0 0 0 0 0 0 0 0 0 0 0 0 0 0 0 0 0 0 0 0 0 0 0 0 0 0 0 0 0 0 0
0 0 0 0 0 0 0 0 0 0 0 0 0 0 0 0 0 0 0 0 0 0 0 0 0 0 0 0 0 0 0 0 0 0 0 0 0 0 0 0 0 0 0 0
0 0 0 0 0 0 0 0 0 0 0 0 0 0 0 0 0 0 0 0 0 0 0 0 0 0 0 0 0 0 0 0 0 0 0 0 0 0 0 0 0 0 0 0
0 0 0 0 0 0 0 0 0 0 0 0 0 0 0 0 0 0 0 0 0 0 0 0 0 0 0 0 0 0 0 0 0 0 0 0 0 0 0 0 0 0 0 0
0 0 0 0 0 0 0 0 0 0 0 0 0 0 0 0 0 0 0 0 0 0 0 0 0 0 0 0 0 0 0 0 0 0 0 0 0 0 0 0 0 0 0 0
0 0 0 0 0 0 0 0 0 0 0 0 0 0 0 0 0 0 0 0 0 0 0 0 0 0 0 0 0 0 0 0 0 0 0 0 0 0 0 0 0 0 0 0
0 0 0 0 0 0 0 0 0 0 0 0 0 0 0 0 0 0 0 0 0 0 0 0 0 0 0 0 0 0 0 0 0 0 0 0 0 0 0 0 0 0 0 0
0 0 0 0 0 0 0 0 0 0 0 0 0 0 0 0 0 0 0 0 0 0 0 0 0 0 0 0 0 0 0 0 0 0 0 0 0 0 0 0 0 0 0 0
0 0 0 0 0 0 0 0 0 0 0 0 0 0 0 0 0 0 0 0 0 0 0 0 0 0 0 0 0 0 0 0 0 0 0 0 0 0 0 0 0 0 0 0
0 0 0 0 0 0 0 0 0 0 0 0 0 0 0 0 0 0 0 0 0 0 0 0 0 0 0 0 0 0 0 0 0 0 0 0 0 0 0 0 0 0 0 0
0 0 0 0 0 0 0 0 0 0 0 0 0 0 0 0 0 0 0 0 0 0 0 0 0 0 0 0 0 0 0 0 0 0 0 0 0 0 0 0 0 0 0 0
0 0 0 0 0 0 0 0 0 0 0 0 0 0 0 0 0 0 0 0 0 0 0 0 0 0 0 0 0 0 0 0 0 0 0 0 0 0 0 0 0 0 0 0
0 0 0 0 0 0 0 0 0 0 0 0 0 0 0 0 0 0 0 0 0 0 0 0 0 0 0 0 0 0 0 0 0 0 0 0 0 0 0 0 0 0 0 0
0 0 0 0 0 0 0 0 0 0 0 0 0 0 0 0 0 0 0 0 0 0 0 0 0 0 0 0 0 0 0 0 0 0 0 0 0 0 0 0 0 0 0 0
Wind_Speed
2 2 3 3 5 6 6 7 8 6 2 3 7 8 7 4 4 3 3 3 3 3 2 2 3 3 3 2 2 2 3 2 2 1 2 2 1 1 1 2 2 2 2 1
2 4 3 3 3 6 7 9 9 6 2 4 7 9 7 5 5 4 4 3 2 2 2 2 3 3 2 2 1 2 2 2 2 2 1 1 2 1 1 1 2 2 2 1
4 1 1 3 4 6 7 7 7 7 7 5 6 8 6 5 5 5 4 3 2 2 2 2 3 2 2 2 2 1 1 1 2 2 1 2 2 1 1 1 1 1 1 1
3 2 2 3 4 4 7 3 5 7 6 5 3 6 5 5 5 6 5 4 3 3 2 2 2 2 2 2 2 1 1 1 1 1 2 3 2 2 2 2 1 1 1 1
2 0 2 3 3 3 3 4 5 5 5 6 5 6 6 3 4 5 5 3 3 2 2 2 2 2 2 2 2 2 2 1 1 1 1 2 2 1 1 1 1 2 1 1
3 0 1 1 2 2 3 3 4 3 2 6 7 6 6 3 4 3 3 3 3 2 2 2 2 2 2 2 2 2 2 1 1 1 1 1 1 2 2 2 1 1 1 1
3 3 2 0 1 1 1 1 2 2 3 6 3 5 6 2 1 2 2 2 2 2 2 2 2 2 2 2 2 2 2 1 1 1 1 0 0 1 2 2 1 1 1 1
4 4 4 2 2 2 3 2 2 3 4 3 2 6 4 2 2 2 2 2 1 2 2 3 2 2 2 2 2 2 1 1 1 1 0 0 0 0 0 1 1 1 2 2
3 3 1 1 1 1 2 3 2 2 4 5 6 3 2 1 1 0 0 0 1 1 2 2 2 2 2 2 2 2 1 1 0 0 0 0 1 0 0 0 0 0 1 1
3 4 2 0 1 3 2 1 1 3 3 6 6 4 4 3 3 3 2 2 1 2 2 2 2 2 2 2 1 1 1 1 0 1 1 1 1 1 0 0 0 0 0 1
2 3 3 1 4 4 3 2 3 3 3 3 5 5 1 2 2 2 1 1 2 1 1 1 2 2 2 2 2 1 1 1 1 1 1 1 1 1 0 0 0 0 0 1
1 2 5 4 1 0 3 4 4 3 5 4 4 7 1 1 1 1 0 1 1 1 2 2 2 2 2 2 2 2 2 1 1 1 1 1 1 1 1 0 0 0 0 1
1 2 3 2 1 0 1 3 4 4 3 5 7 8 1 1 1 1 0 0 0 1 1 1 1 1 1 1 1 1 1 1 1 1 1 1 1 1 1 1 1 1 1 1
1 4 6 7 4 2 4 5 5 5 5 8 11 11 6 4 4 3 2 1 1 1 1 1 1 1 1 1 1 1 1 2 1 1 1 1 2 1 1 1 1 1 1 1
2 5 6 9 9 6 8 8 8 11 11 10 11 11 11 7 4 4 2 1 1 1 1 1 1 0 0 1 1 1 1 2 2 2 2 2 2 2 1 1 1 1 1 2
3 4 5 9 9 8 10 11 11 12 11 13 14 16 11 6 3 3 3 2 3 2 2 1 1 1 0 0 1 1 1 2 2 2 2 2 2 2 2 1 1 1 1 2
3 4 4 8 5 5 12 12 13 10 9 9 13 13 6 5 4 4 4 3 4 3 1 1 1 1 1 1 1 1 1 1 1 2 2 2 2 2 2 2 2 2 2 2
5 5 4 5 3 11 10 3 6 9 9 8 8 7 6 6 4 2 1 1 2 2 1 1 1 1 1 1 0 1 1 1 1 2 2 2 2 2 2 2 2 2 2 2
5 6 5 4 7 11 7 2 3 5 8 6 8 9 7 5 3 4 1 1 1 1 1 1 1 1 1 1 1 0 1 1 1 2 2 2 2 2 2 2 2 3 2 3
3 4 5 5 6 9 6 1 0 2 6 3 3 6 5 1 2 4 2 3 2 2 1 1 1 1 0 1 1 1 1 1 2 2 3 2 2 2 3 3 3 3 3 3
4 5 8 9 8 9 3 1 2 3 6 2 2 3 1 3 4 2 2 2 1 1 1 1 1 1 1 1 1 1 2 2 2 2 2 2 2 2 3 3 2 3 3 3
7 6 7 6 8 10 2 3 5 5 2 1 2 2 2 3 2 0 1 1 1 1 1 1 0 0 1 1 1 1 2 2 1 1 2 2 2 3 3 2 2 2 3 3
6 7 5 7 8 3 5 5 3 0 1 2 2 3 2 2 3 2 1 1 1 1 1 0 0 0 1 1 1 2 3 2 1 1 2 2 3 3 3 2 2 2 2 3
4 2 3 5 7 4 4 3 2 2 3 3 3 2 2 2 2 2 1 1 1 1 1 1 0 0 1 1 1 2 2 1 1 2 3 3 3 3 2 3 3 2 2 3
5 3 4 6 6 5 4 4 4 4 3 2 2 2 2 2 2 2 1 1 1 1 1 1 1 1 2 1 2 2 1 1 2 3 3 3 3 3 3 3 3 3 3 4
5 6 7 8 5 5 5 1 1 2 3 2 2 2 1 1 2 1 1 1 1 1 1 1 1 2 2 2 2 2 1 1 2 3 3 2 2 2 2 3 3 5 6 8
Wind_Direction
199 235 233 234 235 267 290 288 288 288 329 277 254 257 251 230 231 239 241 230 221 211 176 144 136 133 134 135 133 144 148 143 134 146 151 145 144 126 112 108 93 94 84 59
219 243 269 294 280 273 272 278 282 290 313 286 274 269 251 225 214 213 222 231 225 204 173 145 135 126 127 125 141 155 157 156 154 164 172 158 147 153 132 113 114 111 113 105
235 293 304 272 275 277 266 269 283 291 302 263 278 278 238 215 208 207 213 212 197 199 199 173 158 157 150 149 168 172 180 165 161 159 148 129 114 103 106 116 125 121 125 125
253 257 294 279 269 275 272 298 290 288 293 279 228 281 249 205 210 208 210 207 200 194 194 178 166 165 161 156 147 150 146 116 122 140 158 159 157 159 176 170 168 166 143 140
253 52 272 260 273 286 276 315 288 275 266 278 247 254 271 202 225 214 202 194 179 161 165 165 157 159 147 138 141 151 133 104 84 105 162 173 169 159 135 130 153 163 161 154
261 278 280 291 304 282 295 292 272 250 244 259 230 222 269 222 223 202 184 171 162 145 145 144 126 118 105 108 125 125 124 112 98 104 87 170 177 156 149 152 182 180 175 170
248 209 178 242 297 263 279 305 312 278 227 245 202 210 246 220 99 136 157 157 151 147 149 142 125 131 121 111 113 121 123 121 104 106 103 68 281 177 175 170 188 190 182 187
271 252 182 192 219 233 229 217 212 253 266 289 249 230 235 131 79 74 85 106 142 161 149 144 133 120 114 118 122 117 125 128 116 100 76 55 38 134 193 171 180 196 201 193
291 277 96 198 259 256 240 227 251 277 285 277 254 240 259 122 104 91 329 3 206 164 133 116 103 103 112 115 120 136 144 129 95 52 24 24 21 30 185 223 218 182 225 192
305 287 268 121 267 258 273 295 188 213 256 268 268 249 247 230 229 219 223 240 212 121 110 112 114 105 103 109 105 112 128 135 89 37 353 344 341 313 309 117 336 276 261 204
296 260 266 224 210 212 199 223 226 243 238 246 277 267 289 198 188 187 199 170 145 129 107 95 85 79 76 66 65 62 65 68 53 17 335 327 307 313 311 188 263 292 289 244
241 254 262 237 198 307 209 217 199 217 249 235 256 266 316 47 69 94 114 141 127 112 104 99 99 80 68 64 55 45 29 30 13 339 317 310 315 318 298 256 277 312 295 269
196 209 282 277 269 282 257 247 237 244 258 242 243 258 245 30 2 2 291 237 147 119 103 104 102 92 80 63 46 35 19 1 359 352 335 323 309 301 294 296 313 323 299 290
235 223 217 236 258 233 243 239 225 216 232 249 244 261 277 284 288 297 284 252 203 173 161 138 107 73 55 49 37 17 1 353 343 338 317 303 295 286 296 317 324 312 298 288
198 245 249 261 270 266 256 248 226 225 231 242 258 264 271 274 269 274 277 280 288 228 196 177 189 217 41 36 17 358 350 348 347 341 320 303 313 316 308 308 301 298 298 295
218 250 264 263 251 253 265 252 236 235 239 247 262 269 272 284 296 301 300 280 265 263 244 226 220 213 208 286 315 332 334 334 340 327 314 317 316 315 301 287 288 280 283 287
207 222 247 262 263 281 261 237 222 227 222 221 243 256 285 291 279 265 266 258 249 252 250 239 225 220 232 237 249 257 293 320 319 308 307 306 303 301 292 284 282 271 273 277
208 220 238 266 278 247 244 214 206 223 240 229 242 262 271 269 273 266 257 246 264 270 274 280 271 270 262 240 276 285 297 296 293 293 297 297 294 292 295 284 277 277 275 271
215 212 234 243 256 267 267 223 186 211 257 235 239 263 277 295 302 279 298 351 293 280 275 273 268 269 253 208 218 215 262 273 279 286 289 287 284 284 288 280 278 282 280 274
226 219 229 235 246 253 260 257 340 128 267 263 229 260 283 337 268 267 12 14 5 5 8 354 351 2 332 248 188 194 245 260 269 278 285 293 289 279 278 274 277 281 276 271
196 213 224 234 245 257 258 210 106 180 255 300 249 259 260 226 240 284 2 2 6 8 9 32 37 10 303 288 185 215 240 256 272 286 298 300 293 284 281 276 274 275 277 280
192 201 211 216 232 249 175 134 188 228 313 329 313 293 260 260 287 321 355 347 354 359 12 41 75 317 309 294 209 240 260 272 287 294 295 294 293 290 292 278 277 277 273 275
202 203 204 206 222 243 168 197 224 288 275 287 293 293 278 275 278 280 286 298 321 331 332 350 192 276 307 282 236 252 278 291 298 291 284 287 291 291 289 279 272 273 267 264
231 217 229 250 256 248 224 232 258 250 254 273 274 279 266 255 264 269 269 277 293 310 318 335 344 291 297 290 276 272 286 301 295 286 286 284 282 285 287 281 273 266 260 259
236 194 227 249 270 287 252 232 247 258 255 266 275 269 255 243 259 251 258 264 272 293 325 329 289 271 282 290 290 295 292 282 280 281 282 284 280 280 281 280 275 274 260 257
215 202 210 238 233 228 251 251 266 253 256 255 254 279 298 250 255 253 261 267 281 299 318 312 298 290 294 297 295 297 282 264 274 283 285 284 285 281 279 284 295 294 285 287